Big Rapids, MI

1:27 AM EDT on August 24, 2019 (GMT -0400)
Roben-Hood

Weather History for KRQB - May, 2019

Change the Weather History Date:

Thursday, May 16, 2019

  Actual Average Record
Temperature  
Mean Temperature 57 °F -  
Max Temperature 72 °F 68 °F 89 °F (2001)
Min Temperature 42 °F 43 °F 30 °F (1980)
Degree Days  
Heating Degree Days 8    
Growing Degree Days 7 (Base 50)    
Moisture  
Dew Point 49 °F    
Average Humidity 74    
Maximum Humidity 94    
Minimum Humidity 54    
Precipitation  
Precipitation 0.00 in - - ()
Sea Level Pressure  
Sea Level Pressure 29.80 in    
Wind  
Wind Speed 4 mph (SW)    
Max Wind Speed 20 mph    
Max Gust Speed 29 mph    
Visibility 10 miles    
Events Rain    
Averages and records for this station are not official NWS values.
T = Trace of Precipitation, MM = Missing Value Source: NWS Daily Summary

Daily Weather History Graph

Daily Weather History Graph

Search for Another Location

Airport or City:

Astronomy

May. 16, 2019 Rise Set
Actual Time 6:15 AM EDT 9:01 PM EDT
Civil Twilight 5:42 AM EDT 9:34 PM EDT
Nautical Twilight 5:00 AM EDT 10:17 PM EDT
Astronomical Twilight 4:12 AM EDT 11:05 PM EDT
Moon 6:33 PM EDT (5/16) 5:21 AM EDT (5/16)
Length of Visible Light 15h 52m
Length of Day
14h 45m
Waxing Gibbous, 94% of the Moon is Illuminated
May 16
Waxing Gibbous
May 18
Full
May 26
Last Quarter
Jun 3
New
Jun 10
First Quarter

Hourly Weather History & Observations

Time (EDT) Temp. Windchill Dew Point Humidity Pressure Visibility Wind Dir Wind Speed Gust Speed Precip Events Conditions
12:15 AM 51.6 °F - 42.1 °F 70% 29.94 in 10.0 mi Calm Calm - N/A   Clear
12:35 AM 50.9 °F - 41.9 °F 71% 29.93 in 10.0 mi Calm Calm - N/A   Clear
12:36 AM 50.9 °F - 41.9 °F 71% 29.93 in 10.0 mi Calm Calm - N/A   Clear
12:55 AM 49.6 °F - 41.7 °F 74% 29.92 in 10.0 mi Calm Calm - N/A   Clear
12:56 AM 49.5 °F - 41.7 °F 75% 29.93 in 10.0 mi Calm Calm - N/A   Clear
1:15 AM 47.8 °F - 41.2 °F 78% 29.92 in 10.0 mi Calm Calm - N/A   Clear
1:35 AM 46.8 °F - 41.2 °F 81% 29.92 in 10.0 mi Calm Calm - N/A   Clear
1:36 AM 46.9 °F - 41.4 °F 81% 29.92 in 10.0 mi Calm Calm - N/A   Clear
1:55 AM 46.6 °F - 41.5 °F 83% 29.92 in 10.0 mi Calm Calm - N/A   Clear
1:56 AM 46.6 °F - 41.5 °F 83% 29.92 in 10.0 mi Calm Calm - N/A   Clear
2:15 AM 46.4 °F 45.2 °F 41.9 °F 84% 29.92 in 10.0 mi West 3.5 mph - N/A   Clear
2:35 AM 45.7 °F 43.4 °F 41.7 °F 86% 29.92 in 10.0 mi West 4.6 mph - N/A   Clear
2:55 AM 44.6 °F - 40.8 °F 87% 29.91 in 10.0 mi Calm Calm - N/A   Clear
2:56 AM 44.6 °F - 40.8 °F 87% 29.91 in 10.0 mi Calm Calm - N/A   Clear
3:15 AM 44.8 °F - 41.5 °F 88% 29.91 in 10.0 mi Calm Calm - N/A   Clear
3:35 AM 45.1 °F - 41.7 °F 88% 29.90 in 10.0 mi Calm Calm - N/A   Clear
3:55 AM 45.1 °F - 41.5 °F 87% 29.89 in 10.0 mi Calm Calm - N/A   Clear
3:56 AM 45.1 °F 43.7 °F 41.5 °F 87% 29.90 in 10.0 mi West 3.5 mph - N/A   Clear
4:15 AM 44.1 °F - 40.8 °F 88% 29.90 in 10.0 mi Calm Calm - N/A   Clear
4:16 AM 43.9 °F - 40.6 °F 88% 29.90 in 10.0 mi Calm Calm - N/A   Clear
4:35 AM 43.2 °F - 40.8 °F 91% 29.90 in 10.0 mi Calm Calm - N/A   Clear
4:36 AM 43.3 °F - 41.0 °F 91% 29.90 in 10.0 mi Calm Calm - N/A   Clear
4:55 AM 43.2 °F - 40.6 °F 91% 29.91 in 10.0 mi North - - N/A   Clear
5:15 AM 43.0 °F - 40.6 °F 91% 29.90 in 10.0 mi North - - N/A   Clear
5:16 AM 43.0 °F - 40.6 °F 91% 29.90 in 10.0 mi North - - N/A   Clear
5:35 AM 43.0 °F - 40.6 °F 91% 29.89 in 10.0 mi Calm Calm - N/A   Clear
5:36 AM 43.0 °F - 40.6 °F 91% 29.89 in 10.0 mi North - - N/A   Clear
5:55 AM 42.8 °F - 40.5 °F 91% 29.89 in 10.0 mi North - - N/A   Clear
6:15 AM 42.4 °F - 39.7 °F 90% 29.89 in 10.0 mi Calm Calm - N/A   Clear
6:16 AM 42.1 °F - 39.6 °F 91% 29.89 in 10.0 mi Calm Calm - N/A   Clear
6:35 AM 42.4 °F - 40.3 °F 92% 29.89 in 10.0 mi Calm Calm - N/A   Clear
6:36 AM 42.4 °F - 40.3 °F 92% 29.89 in 10.0 mi Calm Calm - N/A   Clear
6:55 AM 42.3 °F - 40.3 °F 93% 29.89 in 10.0 mi Calm Calm - N/A   Clear
7:15 AM 43.5 °F - 41.5 °F 93% 29.89 in 10.0 mi Calm Calm - N/A   Clear
7:35 AM 45.3 °F - 43.0 °F 92% 29.87 in 10.0 mi Calm Calm - N/A   Clear
7:55 AM 47.3 °F - 45.0 °F 92% 29.87 in 10.0 mi Calm Calm - N/A   Scattered Clouds
7:56 AM 47.3 °F - 45.0 °F 92% 29.87 in 10.0 mi Calm Calm - N/A   Scattered Clouds
8:15 AM 47.5 °F - 44.8 °F 90% 29.86 in 10.0 mi Calm Calm - N/A   Scattered Clouds
8:35 AM 50.5 °F - 46.0 °F 85% 29.86 in 10.0 mi South 6.9 mph - N/A   Clear
8:55 AM 53.2 °F - 45.7 °F 76% 29.86 in 10.0 mi SE 4.6 mph - N/A   Clear
8:56 AM 53.4 °F - 45.5 °F 75% 29.86 in 10.0 mi SE 4.6 mph - N/A   Clear
9:15 AM 55.0 °F - 45.0 °F 69% 29.86 in 10.0 mi SSE 5.8 mph - N/A   Clear
9:16 AM 55.2 °F - 45.0 °F 68% 29.86 in 10.0 mi SE 4.6 mph - N/A   Clear
9:35 AM 57.4 °F - 43.7 °F 60% 29.85 in 10.0 mi South 5.8 mph - N/A   Scattered Clouds
9:36 AM 57.2 °F - 43.7 °F 61% 29.85 in 10.0 mi South 5.8 mph - N/A   Mostly Cloudy
9:55 AM 57.7 °F - 44.4 °F 61% 29.86 in 10.0 mi SSW 9.2 mph - N/A   Overcast
10:15 AM 59.9 °F - 45.5 °F 59% 29.85 in 10.0 mi South 10.4 mph 16.1 mph N/A   Mostly Cloudy
10:16 AM 60.1 °F - 45.5 °F 59% 29.85 in 10.0 mi South 10.4 mph 16.1 mph N/A   Mostly Cloudy
10:35 AM 61.9 °F - 46.8 °F 58% 29.84 in 10.0 mi SSE 4.6 mph - N/A   Clear
10:55 AM 64.0 °F - 47.7 °F 55% 29.82 in 10.0 mi SW 6.9 mph - N/A   Clear
10:56 AM 64.2 °F - 47.7 °F 55% 29.82 in 10.0 mi SW 8.1 mph - N/A   Clear
11:15 AM 65.5 °F - 48.9 °F 55% 29.81 in 10.0 mi SW 12.7 mph 17.3 mph N/A   Clear
11:16 AM 65.5 °F - 48.9 °F 55% 29.81 in 10.0 mi SW 13.8 mph 17.3 mph N/A   Clear
11:35 AM 66.0 °F - 49.1 °F 54% 29.81 in 10.0 mi WSW 12.7 mph 23.0 mph N/A   Scattered Clouds
11:55 AM 66.2 °F - 49.8 °F 55% 29.80 in 10.0 mi SW 9.2 mph 20.7 mph N/A   Scattered Clouds
11:56 AM 66.2 °F - 50.0 °F 56% 29.80 in 10.0 mi SW 9.2 mph 20.7 mph N/A   Scattered Clouds
12:15 PM 66.6 °F - 50.7 °F 57% 29.80 in 10.0 mi SSW 10.4 mph 20.7 mph N/A   Mostly Cloudy
12:16 PM 66.6 °F - 50.7 °F 57% 29.80 in 10.0 mi SW 9.2 mph 20.7 mph N/A   Light Drizzle
12:35 PM 64.4 °F - 52.9 °F 66% 29.78 in 10.0 mi SW 9.2 mph 23.0 mph N/A Rain Light Rain
12:55 PM 66.6 °F - 53.1 °F 62% 29.76 in 10.0 mi SW 11.5 mph 20.7 mph N/A   Mostly Cloudy
12:56 PM 66.7 °F - 53.1 °F 61% 29.76 in 10.0 mi SW 10.4 mph 20.7 mph N/A   Mostly Cloudy
1:15 PM 68.0 °F - 53.8 °F 60% 29.74 in 10.0 mi SSW 10.4 mph 23.0 mph N/A   Scattered Clouds
1:16 PM 68.2 °F - 53.8 °F 60% 29.74 in 10.0 mi SSW 13.8 mph 23.0 mph N/A   Scattered Clouds
1:35 PM 68.0 °F - 55.2 °F 64% 29.73 in 10.0 mi SW 16.1 mph 24.2 mph N/A   Scattered Clouds
1:55 PM 68.4 °F - 55.6 °F 64% 29.73 in 10.0 mi SSW 13.8 mph 25.3 mph N/A   Mostly Cloudy
2:15 PM 69.8 °F - 56.7 °F 63% 29.71 in 10.0 mi SSW 11.5 mph 24.2 mph N/A   Mostly Cloudy
2:16 PM 69.8 °F - 56.7 °F 63% 29.71 in 10.0 mi SSW 10.4 mph 24.2 mph N/A   Mostly Cloudy
2:35 PM 70.3 °F - 57.2 °F 63% 29.71 in 10.0 mi SW 15.0 mph - N/A   Scattered Clouds
2:55 PM 69.6 °F - 56.7 °F 63% 29.69 in 10.0 mi WSW 16.1 mph 23.0 mph N/A   Mostly Cloudy
3:15 PM 70.0 °F - 57.2 °F 64% 29.69 in 10.0 mi WSW 18.4 mph 25.3 mph N/A   Scattered Clouds
3:16 PM 70.0 °F - 57.2 °F 64% 29.69 in 10.0 mi WSW 18.4 mph 25.3 mph N/A   Scattered Clouds
3:35 PM 71.4 °F - 57.0 °F 60% 29.69 in 10.0 mi WSW 16.1 mph 26.5 mph N/A   Clear
3:55 PM 72.7 °F - 56.8 °F 57% 29.69 in 10.0 mi SW 12.7 mph 28.8 mph N/A   Mostly Cloudy
3:56 PM 72.7 °F - 56.7 °F 57% 29.68 in 10.0 mi WSW 13.8 mph 28.8 mph N/A   Mostly Cloudy
4:15 PM 72.1 °F - 56.7 °F 58% 29.68 in 10.0 mi WSW 13.8 mph 24.2 mph N/A   Mostly Cloudy
4:16 PM 72.0 °F - 56.7 °F 58% 29.68 in 10.0 mi SW 15.0 mph 24.2 mph N/A   Mostly Cloudy
4:35 PM 71.8 °F - 56.5 °F 58% 29.68 in 10.0 mi WSW 16.1 mph - N/A   Mostly Cloudy
4:55 PM 72.1 °F - 56.7 °F 58% 29.68 in 10.0 mi WSW 11.5 mph 18.4 mph N/A   Overcast
5:15 PM 72.7 °F - 56.5 °F 57% 29.68 in 10.0 mi West 13.8 mph 28.8 mph N/A   Overcast
5:16 PM 72.7 °F - 56.5 °F 57% 29.68 in 10.0 mi WSW 12.7 mph 28.8 mph N/A   Overcast
5:35 PM 71.8 °F - 56.5 °F 58% 29.68 in 10.0 mi West 15.0 mph - N/A   Overcast
5:36 PM 71.8 °F - 56.3 °F 58% 29.68 in 10.0 mi West 13.8 mph - N/A   Overcast
5:55 PM 71.6 °F - 56.1 °F 58% 29.68 in 10.0 mi WSW 12.7 mph 23.0 mph N/A   Overcast
5:56 PM 71.6 °F - 56.1 °F 58% 29.68 in 10.0 mi West 15.0 mph 23.0 mph N/A   Overcast
6:15 PM 70.5 °F - 54.9 °F 58% 29.69 in 10.0 mi WSW 19.6 mph - N/A   Overcast
6:35 PM 69.1 °F - 54.7 °F 60% 29.69 in 10.0 mi West 15.0 mph 24.2 mph N/A   Overcast
6:55 PM 68.0 °F - 55.4 °F 64% 29.70 in 10.0 mi WSW 8.1 mph 16.1 mph N/A   Overcast
7:15 PM 68.0 °F - 55.8 °F 65% 29.69 in 10.0 mi West 9.2 mph - N/A   Overcast
7:16 PM 68.0 °F - 55.8 °F 65% 29.69 in 10.0 mi West 9.2 mph - N/A   Overcast
7:35 PM 67.6 °F - 56.5 °F 67% 29.69 in 10.0 mi North - - N/A   Overcast
7:55 PM 66.6 °F - 56.3 °F 69% 29.69 in 10.0 mi WSW 15.0 mph - N/A   Overcast
8:15 PM 65.8 °F - 55.9 °F 70% 29.69 in 10.0 mi WSW 12.7 mph - N/A   Overcast
8:16 PM 65.7 °F - 55.8 °F 70% 29.69 in 10.0 mi WSW 12.7 mph - N/A   Overcast
8:35 PM 64.6 °F - 55.9 °F 74% 29.70 in 10.0 mi West 4.6 mph - N/A   Mostly Cloudy
8:36 PM 64.6 °F - 55.8 °F 73% 29.70 in 10.0 mi West 4.6 mph - N/A   Mostly Cloudy
8:55 PM 63.5 °F - 55.8 °F 76% 29.69 in 10.0 mi WSW 3.5 mph - N/A   Mostly Cloudy
8:56 PM 63.5 °F - 55.8 °F 76% 29.69 in 10.0 mi WSW 3.5 mph - N/A   Mostly Cloudy
9:15 PM 62.6 °F - 55.9 °F 79% 29.70 in 10.0 mi Calm Calm - N/A   Scattered Clouds
9:35 PM 61.0 °F - 55.6 °F 82% 29.70 in 10.0 mi SSE 3.5 mph - N/A   Clear
9:55 PM 59.5 °F - 55.4 °F 86% 29.70 in 10.0 mi Calm Calm - N/A   Clear
9:56 PM 59.7 °F - 55.6 °F 86% 29.70 in 10.0 mi Calm Calm - N/A   Clear
10:15 PM 59.4 °F - 55.6 °F 87% 29.70 in 10.0 mi Calm Calm - N/A   Clear
10:16 PM 59.4 °F - 55.6 °F 87% 29.70 in 10.0 mi Calm Calm - N/A   Clear
10:35 PM 58.5 °F - 55.2 °F 89% 29.70 in 10.0 mi Calm Calm - N/A   Clear
10:55 PM 55.9 °F - 53.1 °F 90% 29.70 in 10.0 mi Calm Calm - N/A   Clear
11:15 PM 56.7 °F - 54.1 °F 91% 29.69 in 10.0 mi Calm Calm - N/A   Clear
11:16 PM 56.7 °F - 54.1 °F 91% 29.69 in 10.0 mi Calm Calm - N/A   Clear
11:35 PM 57.7 °F - 55.9 °F 94% 29.72 in 10.0 mi NNW 4.6 mph - N/A   Scattered Clouds
11:55 PM 58.5 °F - 55.8 °F 91% 29.72 in 10.0 mi NW 4.6 mph - N/A   Overcast